串田彗星

144P/Kushida (2016)

English version
Home page
Updated on February 7, 2017

---------------------------------------------------------------------

・ プロフィール

・ 写真集

・ 軌道要素

Epoch 2016 July 31.0 TT = JDT 2457600.5
T 2016 Aug. 31.07805 TT                                 MPCW
q   1.4314356            (2000.0)            P               Q
n   0.13011730     Peri.  216.15070     -0.20038524     -0.97753915
a   3.8569679      Node   245.48972     +0.91487171     -0.16286363
e   0.6288702      Incl.    4.11495     +0.35050752     -0.13376342
P   7.57
From 2668 observations 1994 Jan. 7-2016 Aug. 13, mean residual 0".5.
     Nongravitational parameters A1 = +0.65, A2 = +0.0103.

・ 星図

・ 光度変化

        m1 =  7.5 + 5 logΔ +  30 log r(t - 30)  [   ,-33]  (              〜2016年 7月29日)
        m1 = -5.5 + 5 logΔ + 100 log r(t - 20)  [-33, 25]  (2016年 7月29日〜2016年 9月25日)
        m1 =  6.0 + 5 logΔ +  25 log r          [ 25,   ]  (2016年 9月25日〜              )

---------------------------------------------------------------------

軌道要素はM.P.E.C. 2016-Q04に掲載されたものです。
星図はステラナビゲータ Ver.8 (アストロアーツ) で作成したものです。
光度グラフはComet for Windowsで作成したものです。

---------------------------------------------------------------------

Copyright(C) Seiichi Yoshida (comet@aerith.net). All rights reserved.